Regional Weather Roundup
Issued by NWS Jackson, KY

Home | Current Version | Previous Version | Graphics & Text | Print | Product List | Glossary On
Versions: 1 2 3 4 5 6 7 8 9 10 11 12 13 14 15 16 17 18 19 20 21 22 23 24 25 26 27 28 29 30 31 32 33 34 35 36 37 38 39 40 41 42 43 44 45 46 47 48 49 50
000
ASUS43 KJKL 291110
RWRJKL

EAST KENTUCKY HOURLY WEATHER ROUNDUP
NATIONAL WEATHER SERVICE JACKSON KY
700 AM EDT FRI AUG 29 2014

NOTE: "FAIR" INDICATES FEW OR NO CLOUDS BELOW 12,000 FEET WITH
NO SIGNIFICANT WEATHER AND/OR OBSTRUCTIONS TO VISIBILITY.

* THESE REPORTS ARE NOT UNDER NWS QUALITY CONTROL AND MAY NOT
  REPORT WEATHER SUCH AS PRECIPITATION AND FOG.

KYZ079-080-083-085-087-088-110-112-115-119-120-291200
...EASTERN KENTUCKY...

CITY           SKY/WX    TMP DP  RH WIND       PRES   REMARKS
JACKSON        CLEAR     66  61  84 CALM      30.09R
LONDON         CLEAR     68  65  90 CALM      30.08R FOG
SOMERSET*      CLEAR     68  68 100 CALM      30.07S
MONTICELLO*    CLEAR     69  68  97 CALM      30.07R FOG
WILLIAMSBURG*  CLOUDY    66  66 100 CALM      30.08R
MIDDLESBORO*   FOG       68  68 100 CALM      30.10R VSB 3/4
HARLAN APT*    CLOUDY    66  66 100 MISG      30.11S VSB 1/4
BLACK MTN*       N/A     66  63  88 S5          N/A
PIKEVILLE APT* CLEAR     64  64 100 CALM      30.10R FOG
BIG SANDY*     MOSUNNY   62  61  99 CALM      30.10R FOG
MOREHEAD APT*  MOSUNNY   66  59  77 VRB3      30.11S
$$

KYZ035-036-041-042-044-050-067-078-099-291200
...CENTRAL KENTUCKY...

CITY           SKY/WX    TMP DP  RH WIND       PRES   REMARKS
MT STERLING*   CLEAR     66  63  88 E5        30.10R
FLEMING/MASON* CLEAR     63  59  88 E3        30.10S
DANVILLE*      CLEAR     64  64 100 CALM      30.07S FOG
RICHMOND*      CLEAR     66  63  88 CALM      30.07R
LEXINGTON      CLEAR     71  62  73 E3        30.07R
FRANKFORT      PTCLDY    68  64  87 E5        30.06R
$$

KYZ091>093-OHZ055-061-077-WVZ005-015-034-035-042-291200
...SOUTHERN OHIO/WEST VIRGINIA...

CITY           SKY/WX    TMP DP  RH WIND       PRES   REMARKS
COVINGTON      PTCLDY    67  60  78 E7        30.08R
COLUMBUS       PTCLDY    63  52  67 E8        30.12R
DAYTON         PTCLDY    64  56  75 SE8       30.12R
WILMINGTON     PTCLDY    60  56  86 E5        30.11R
HUNTINGTON     CLEAR     62  61  96 NE5       30.10R
CHARLESTON     MOCLDY    61  61 100 NE3       30.11R FOG
PINEVILLE*     CLOUDY    63  63 100 MISG      30.19R FOG
BECKLEY        CLEAR     63  57  81 SE5       30.17R
BLUEFIELD      CLEAR     65  58  78 VRB6      30.20R
$$

VAZ002-007-008-TNZ017-027-036-066-071-291200
...SOUTHWEST VIRGINIA/EAST TENNESSEE...

CITY           SKY/WX    TMP DP  RH WIND       PRES   REMARKS
WISE*          CLEAR     64  64 100 CALM      30.17R
JONESVILLE*      N/A     64  64 100 CALM      30.12R FOG
ABINGDON*      CLEAR     69  65  88 E5        30.14R
BRISTOL        PTCLDY    66  63  90 CALM      30.11R
KNOXVILLE      PTCLDY    70  69  97 CALM      30.06R FOG
OAK RIDGE      PTCLDY    72  70  93 CALM      30.08R FOG
CROSSVILLE     CLEAR     72  64  76 CALM      30.11R HAZE
NASHVILLE      PTCLDY    71  70  96 SE5       30.02R
$$

...KEY TO REMARKS...
VSB - VISIBILITY IN MILES
WCI - WIND CHILL INDEX
HX  - HEAT INDEX

$$


USA.gov is the U.S. government's official web portal to all federal, state and local government web resources and services.